Location: Montreal
(45.5000°N, 73.5833°W)
Time: 22:28:42
(UTC-04:00)

N. Korean satellite - Pass Details

Date: 10 October 2017
Orbit: 459 x 517 km, 97.2° (Epoch: 22 October)

Event Time Altitude Azimuth Distance (km) Brightness Sun altitude
Rises 19:23:26 0° 186° (S) 2,565 10.3 -12.4°
Reaches altitude 10° 19:25:38 10° 195° (SSW) 1,677 9.4 -12.8°
Maximum altitude 19:28:58 35° 263° (W) 804 8.4 -13.4°
Drops below altitude 10° 19:32:16 10° 330° (NNW) 1,661 9.7 -13.9°
Sets 19:34:26 0° 340° (NNW) 2,535 10.6 -14.3°
